全球星 M061星 (GLOBALSTAR M061)

导读

GLOBALSTAR M061是全球星(Globalstar)星座系统中的卫星,于1999年11月22日发射。全球星系统由美国企业发起,是提供全球移动通信服务的低轨卫星星座,该卫星运行于约1414千米轨道,支持话音、数据、定位等业务,为偏远地区、海洋等区域提供通信连接,助力实现南北纬70°范围内的通信覆盖,支撑全球漫游与应急通信需求。

基本信息
目录编号:
25964
目录名称:
GLOBALSTAR M061
国际标识:
1999-062D
轨道中心:
EARTH
卫星名称:
全球星 M061星
卫星全名:
全球星 M061星 (GLOBALSTAR M061)
卫星状态:
在轨 (已飞行9744 天)
发射日期:
1999-11-22 UTC
国别 :
(GLOB)
星等 :
--
轨道信息
数据来源 国际轨道数据 AOE轨道数据
星历时间 2026-07-27T19:34:09+0800
10小时前
查看轨道信息
2026-07-26T07:00:00+0800
1天前
查看轨道信息
半长轴 8164.668km 8164.667km
偏心率 0.000582 0.0005795
轨道倾角 51.976° 51.976°
近地点辐角 5.953° 3.246°
升交点赤经 227.262° 231.204°
平近点角 161.195° 185.971°
近地点 1781.779km 1781.798km
远地点 1791.283km 1791.262km
周期 122.368分钟 122.368分钟
每日圈数 11.767793 11.767794
详细信息
固有亮度:
5
最大亮度:
7.9
平衡模式:
三轴稳定
覆盖范围:
全球
运营商:
全球星公司
运营商所在国:
美国
使用方式:
暂无
卫星简介
全球星星座由48颗卫星加8颗备份星组成。这些卫星分布在8个倾角为52度的圆形轨道平面上,每个轨道平面6颗卫星,另有1 颗备用星。轨道高度约为1414km,传输时延和处理时延小于300ms,整个系统的覆盖区为南北纬70度以内的地区。该卫星已退役。
2D轨道图
3D轨道图
轨道高度分析图
轨道倾角分析图
轨道综合分析图
查看轨道综合分析图